Regional Weather Roundup
Issued by NWS

Home | Current Version | Previous Version | Graphics & Text | Print | Product List | Glossary On
Versions: 1 2 3 4 5 6 7 8 9 10 11 12 13 14 15 16 17 18 19 20 21 22 23 24 25 26 27 28 29 30 31 32 33 34 35 36 37 38 39 40 41 42 43 44 45 46 47 48 49 50
000
ASUS43 KLMK 181902
RWRKY
KENTUCKY REGIONAL WEATHER ROUNDUP
NATIONAL WEATHER SERVICE LOUISVILLE KY
300 PM EDT SAT APR 18 2015

NOTE "FAIR" INDICATES FEW OR NO CLOUDS BELOW 12,000 FEET
WITH NO SIGNIFICANT WEATHER AND/OR OBSTRUCTIONS TO VISIBILITY.

KYZ001>023-026-027-061>063-070>075-182000-
WESTERN AND SOUTH CENTRAL KENTUCKY

CITY           SKY/WX    TMP DP  RH WIND       PRES   REMARKS
PADUCAH        CLOUDY    79  60  52 E7        29.94F
HENDERSON      PTSUNNY   73  57  56 NE9       29.95F
OWENSBORO      PTSUNNY   79  56  45 E6        29.97F
HOPKINSVILLE   MOSUNNY   76  60  57 NE9       29.95F
BOWLING GREEN  MOSUNNY   78  55  44 CALM      29.96F
GLASGOW        NOT AVBL
$$

KYZ024-025-028>034-038-045-046-053-182000-
NORTH CENTRAL KENTUCKY

CITY           SKY/WX    TMP DP  RH WIND       PRES   REMARKS
LOUISVILLE/SDF PTSUNNY   80  46  30 E10       29.99F
LOUISVILLE/LOU MOSUNNY   77  46  33 SE6       30.00F
FORT KNOX      SUNNY     78  49  35 NE5       29.97F
$$

KYZ035>037-039>044-047>052-055>060-089>105-182000-
NORTHEAST KENTUCKY

CITY           SKY/WX    TMP DP  RH WIND       PRES   REMARKS
LEXINGTON      PTSUNNY   76  49  38 VRB7      30.01F
COVINGTON      PTSUNNY   77  46  33 NE10      30.02F
FRANKFORT      PTSUNNY   76  45  33 E8G17     30.00F
$$

KYZ054-064>069-076>088-106>120-182000-
SOUTHEAST KENTUCKY

CITY           SKY/WX    TMP DP  RH WIND       PRES   REMARKS
JACKSON        MOSUNNY   79  48  33 VRB3      29.99F
LONDON         CLOUDY    80  50  34 CALM      29.97F
SOMERSET       NOT AVBL
MIDDLESBORO    NOT AVBL
MONTICELLO     CLOUDY    80  58  46 VRB6      30.00F
$$



USA.gov is the U.S. government's official web portal to all federal, state and local government web resources and services.